Tampa International Airport

Airport
ICAO code: 
KTPA
Summary
ICAO Region: 
NAM
Territory: 
Location: 
Tampa, Florida,
Coordinates: 
Aerial View: 
27° 58' 36.808" N, 82° 32' 0.157" W
Metar
Observation
KTPA 082353Z 18007KT 10SM FEW012 BKN021 BKN250 23/21 A3002 RMK AO2 SLP165 T02330211 10267 20233 51009
Station
Tampa, Tampa International Airport
Date/Time
2021-12-08 23:53:00
Wind direction
180°
Wind speed
07 kts
Lowest cloud amount
few clouds
Temperature
23.3°C
Dew point
21.1°C
Humidity
87%
Weather condition
n/a

Description

International airport 6 nm west of Tampa, Florida, USA.

Climatology

Humid “subtropical” climate (Köppen climate classification Cfa) - characterized by hot, humid summers and cool winters. Significant amounts of precipitation occur in all seasons in most areas.

Runways

Designator Length Width Surface Rops
9/27 2133 46 PEM Yes/Yes
18L/36R 2530 46 PEM Yes/Yes
18R/36L 3353 46 CON Yes/Yes
Airport map: 
Aerial View: 

SKYbrary Partners:

Safety knowledge contributed by: